Location: *
(44.1392°N, 4.8079°E)
Time: 07:38:16
(UTC+00:00)

Cosmos 468 Rocket - Pass Details

Date: 21 June 2021
Orbit: 743 x 780 km, 74.0° (Epoch: 31 July)

Event Time Altitude Azimuth Distance (km) Brightness Sun altitude
Exits shadow 00:22:34 51° 207° (SSW) 946 4.0 -21.8°
Maximum altitude 00:23:55 85° 291° (WNW) 766 3.9 -21.8°
Drops below altitude 10° 00:29:10 10° 20° (NNE) 2,306 7.6 -21.6°
Sets 00:31:33 0° 21° (NNE) 3,242 8.7 -21.5°
